Location: Huntsville
(41.2590°N, 111.7678°W)
Time: 07:17:17
(UTC+00:00)

Vanguard 3 - Pass Details

Date: 16 June 2021
Orbit: 508 x 3261 km, 33.4° (Epoch: 29 July)

Event Time Altitude Azimuth Distance (km) Brightness Sun altitude
Rises 21:13:55 0° 266° (W) 4,014 11.1 61.6°
Reaches altitude 10° 21:16:54 10° 252° (WSW) 3,400 11.0 61.1°
Maximum altitude 21:23:45 24° 202° (SSW) 3,171 11.0 59.9°
Drops below altitude 10° 21:33:48 10° 156° (SSE) 5,138 11.4 58.2°
Sets 21:39:48 0° 145° (SE) 6,595 11.7 57.2°
